Tirana, Albania

1:55 AM CEST on August 29, 2016 (GMT +0200)
Tirana

Weather History for 13615 - December, 2013

Change the Weather History Date:

Sunday, December 8, 2013

  Actual Average Record
Temperature  
Mean Temperature 38 °F -  
Max Temperature 53 °F 53 °F - ()
Min Temperature 24 °F 36 °F - ()
Degree Days  
Heating Degree Days 26    
Moisture  
Dew Point 23 °F    
Average Humidity 59    
Maximum Humidity 86    
Minimum Humidity 14    
Precipitation  
Precipitation 0.00 in -13.12 in - ()
Sea Level Pressure  
Sea Level Pressure 30.42 in    
Wind  
Wind Speed 4 mph ()    
Max Wind Speed 7 mph    
Max Gust Speed -    
Visibility 7.0 miles    
Events      
T = Trace of Precipitation, MM = Missing Value Source: Averaged Metar Reports

Daily Weather History Graph

Daily Weather History Graph

Search for Another Location

Airport or City:

Trip Planner

Search our weather history database for the weather conditions in past years. The results will help you decide how hot, cold, wet, or windy it might be!

Date:

Astronomy

Dec. 08, 2013 Rise Set
Actual Time 6:54 AM CET 4:11 PM CET
Civil Twilight 6:23 AM CET 4:42 PM CET
Nautical Twilight 5:48 AM CET 5:17 PM CET
Astronomical Twilight 5:15 AM CET 5:50 PM CET
Moon 11:01 AM CET (12/8) 10:43 PM CET (12/8)
Length of Visible Light 10h 19m
Length of Day
9h 16m
Waxing Crescent, 37% of the Moon is Illuminated
Dec 8
Waxing Crescent
Dec 9
First Quarter
Dec 17
Full
Dec 25
Last Quarter
Jan 1
New

Hourly Weather History & Observations

Time (CET) Temp. Windchill Dew Point Humidity Pressure Visibility Wind Dir Wind Speed Gust Speed Precip Events Conditions
12:20 AM 30.2 °F 26.7 °F 21.2 °F 69% 30.36 in - SSW 3.5 mph - N/A   Clear
12:50 AM 33.8 °F 27.7 °F 19.4 °F 56% 30.36 in - SW 6.9 mph - N/A   Clear
1:00 AM 28 °F - 20 °F 63% 30.38 in 19 mi South 4.5 mph - -  
1:20 AM 30.2 °F 24.3 °F 21.2 °F 69% 30.36 in - NE 5.8 mph - N/A   Clear
1:50 AM 30.2 °F 26.7 °F 23.0 °F 75% 30.39 in - Variable 3.5 mph - N/A   Clear
2:20 AM 30.2 °F 25.4 °F 21.2 °F 69% 30.39 in - SW 4.6 mph - N/A   Clear
2:50 AM 24.8 °F 17.9 °F 19.4 °F 80% 30.39 in - South 5.8 mph - N/A   Clear
3:20 AM 28.4 °F 22.2 °F 21.2 °F 74% 30.39 in - SSE 5.8 mph - N/A   Clear
3:50 AM 26.6 °F 21.2 °F 19.4 °F 74% 30.39 in - South 4.6 mph - N/A   Clear
4:00 AM 28 °F - 21 °F 66% 30.40 in 22 mi SE 2.2 mph - -  
4:20 AM 26.6 °F 22.6 °F 21.2 °F 80% 30.39 in - SE 3.5 mph - N/A   Clear
4:50 AM 28.4 °F 24.6 °F 21.2 °F 74% 30.39 in - South 3.5 mph - N/A   Clear
5:20 AM 28.4 °F - 23.0 °F 80% 30.39 in - Variable 2.3 mph - N/A   Clear
5:50 AM 28.4 °F 24.6 °F 21.2 °F 74% 30.39 in - SSE 3.5 mph - N/A   Clear
6:20 AM 28.4 °F 24.6 °F 21.2 °F 74% 30.39 in - SSE 3.5 mph - N/A   Clear
6:50 AM 28.4 °F 23.3 °F 21.2 °F 74% 30.42 in - South 4.6 mph - N/A   Clear
7:20 AM 28.4 °F 24.6 °F 21.2 °F 74% 30.42 in - SSE 3.5 mph - N/A   Clear
7:50 AM 30.2 °F 26.7 °F 23.0 °F 75% 30.42 in - SSE 3.5 mph - N/A   Clear
8:20 AM 32.0 °F - 24.8 °F 75% 30.42 in 5.0 mi SSE 2.3 mph - N/A   Unknown
8:50 AM 35.6 °F 32.8 °F 24.8 °F 65% 30.42 in - South 3.5 mph - N/A   Clear
9:20 AM 39.2 °F 35.9 °F 24.8 °F 56% 30.42 in - South 4.6 mph - N/A   Clear
9:50 AM 44.6 °F - 24.8 °F 46% 30.42 in - Variable 2.3 mph - N/A   Clear
10:00 AM 44 °F - 22 °F 29% 30.45 in 13 mi NNE 2.2 mph - -  
10:20 AM 46.4 °F - 23.0 °F 40% 30.42 in - Calm Calm - N/A   Clear
10:50 AM 48.2 °F - 23.0 °F 37% 30.42 in - Calm Calm - N/A   Clear
11:20 AM 50.0 °F - 19.4 °F 30% 30.42 in - Calm Calm - N/A   Clear
11:50 AM 51.8 °F - 21.2 °F 30% 30.42 in - Variable 2.3 mph - N/A   Clear
12:20 PM 53.6 °F - 17.6 °F 24% 30.39 in - Calm Calm - N/A   Clear
12:50 PM 51.8 °F - 15.8 °F 24% 30.39 in - NNW 3.5 mph - N/A   Clear
1:00 PM 53 °F - 18 °F 14% 30.41 in 34 mi NW 4.5 mph - -  
1:20 PM 53.6 °F - 17.6 °F 24% 30.39 in - WNW 5.8 mph - N/A   Clear
1:50 PM 53.6 °F - 19.4 °F 26% 30.39 in - NNW 6.9 mph - N/A   Clear
2:20 PM 51.8 °F - 21.2 °F 30% 30.39 in - NNW 6.9 mph - N/A   Clear
2:50 PM 51.8 °F - 23.0 °F 33% 30.39 in - NNW 6.9 mph - N/A   Clear
3:20 PM 51.8 °F - 24.8 °F 35% 30.39 in - NW 5.8 mph - N/A   Clear
3:50 PM 48.2 °F - 23.0 °F 37% 30.39 in - NNW 4.6 mph - N/A   Clear
4:00 PM 48 °F - 22 °F 23% 30.42 in 28 mi NNW 4.5 mph - -  
4:20 PM 48.2 °F - 21.2 °F 34% 30.42 in - NNW 4.6 mph - N/A   Clear
4:50 PM 44.6 °F - 21.2 °F 39% 30.42 in - WNW 2.3 mph - N/A   Clear
5:20 PM 42.8 °F - 23.0 °F 46% 30.42 in - Calm Calm - N/A   Clear
5:50 PM 35.6 °F - 24.8 °F 65% 30.42 in - Variable 2.3 mph - N/A   Clear
6:20 PM 35.6 °F 32.8 °F 26.6 °F 70% 30.42 in - South 3.5 mph - N/A   Clear
6:50 PM 33.8 °F - 26.6 °F 75% 30.42 in - Variable 2.3 mph - N/A   Clear
7:20 PM 33.8 °F 29.6 °F 26.6 °F 75% 30.45 in - SSE 4.6 mph - N/A   Clear
7:50 PM 32.0 °F - 26.6 °F 80% 30.45 in 4.3 mi East 2.3 mph - N/A   Unknown
8:20 PM 32.0 °F - 26.6 °F 80% 30.45 in 4.3 mi South 2.3 mph - N/A   Unknown
8:50 PM 32.0 °F - 26.6 °F 80% 30.45 in 3.7 mi East 2.3 mph - N/A   Unknown
9:20 PM 32.0 °F 27.5 °F 26.6 °F 80% 30.45 in - South 4.6 mph - N/A   Clear
9:50 PM 32.0 °F 28.7 °F 26.6 °F 80% 30.48 in 5.0 mi South 3.5 mph - N/A   Unknown
10:00 PM 31 °F - 25 °F 71% 30.49 in 4 mi South 4.5 mph - -  
10:20 PM 32.0 °F 27.5 °F 24.8 °F 75% 30.48 in 5.0 mi South 4.6 mph - N/A   Unknown
10:50 PM 30.2 °F 24.3 °F 26.6 °F 86% 30.48 in - South 5.8 mph - N/A   Clear
11:20 PM 32.0 °F 28.7 °F 26.6 °F 80% 30.48 in - South 3.5 mph - N/A   Clear
11:50 PM 30.2 °F 26.7 °F 24.8 °F 80% 30.48 in - South 3.5 mph - N/A   Clear